Regional Weather Roundup
Issued by NWS Bismarck, ND

Home | Current Version | Previous Version | Text Only | Print | Product List | Glossary On
Versions: 1 2 3 4 5 6 7 8 9 10 11 12 13 14 15 16 17 18 19 20 21 22 23 24 25 26 27 28 29 30 31 32 33 34 35 36 37 38 39 40 41 42 43 44 45 46 47 48 49 50
000
ASUS43 KBIS 212110
RWRBIS

NWR BROADCAST TEXT
NATIONAL WEATHER SERVICE BISMARCK ND
400 PM CDT MON MAY 21 2018

NOTE: "FAIR" INDICATES FEW OR NO CLOUDS BELOW 12,000 FEET WITH NO
SIGNIFICANT WEATHER AND/OR OBSTRUCTIONS TO VISIBILITY.


CITY           SKY/WX    TMP DP  RH WIND       PRES   REMARKS
WILLISTON      SUNNY     78  40  25 S7        29.88F
MINOT          SUNNY     79  33  19 SE12G25   29.90F
MINOT AFB      SUNNY     78  38  23 S18       29.88F
BISMARCK       SUNNY     72  49  44 MISG      29.94F
DICKINSON      SUNNY     75  36  24 S9G17     29.90F
GARRISON         N/A     75  39  27 S12       29.91F
HETTINGER ARPT SUNNY     72  42  34 SE7       29.93F
JAMESTOWN      PTSUNNY   72  52  49 SE12      29.95F
CARRINGTON     FAIR      75  46  35 S10G18    29.97S
HAZEN          FAIR      75  43  31 SE15      29.93F
LINTON         FAIR     N/A N/A N/A S7G15     29.97S
MANDAN         FAIR      72  50  46 S9        29.95F
OAKES            N/A     66  57  72 SE10      29.98S
STANLEY          N/A     75  36  23 S15G22    29.93F HAZE
TIOGA          FAIR      75  34  22 SW12G20   29.91F
WATFORD CITY   FAIR      77  37  24 VRB3G15   29.88F
$$

CITY           SKY/WX    TMP DP  RH WIND       PRES   REMARKS
GRAND FORKS    FAIR      76  40  27 S6        29.94F
GRAND FORKS AF FAIR      76  38  25 SE6       29.95F
DEVILS LAKE    FAIR      73  43  33 SE12      29.96F
FARGO          CLOUDY    71  43  36 SE10      29.98S
CANDO          FAIR      75  32  20 SE13      29.97F
CAVALIER         N/A     77  30  18 S9        29.95F
GRAFTON        FAIR      77  34  20 S9G17     29.97F
GWINNER          N/A     68  55  64 S7G13     29.98S
LANGDON        FAIR      77  32  19 S14G21    29.97F
ROLLA          FAIR      75  30  19 S15G22    29.95F
WALHALLA       FAIR      75  34  22 S9G16     29.95F
$$

CITY           SKY/WX    TMP DP  RH WIND       PRES   REMARKS
ABERDEEN       CLOUDY    70  55  59 S8        29.97F
MOBRIDGE       SUNNY     72  53  51 SE8       29.93F
BUFFALO          N/A     75  49  39 S12       29.85F
RAPID CITY     SUNNY     73  53  49 SE18      29.92S
GLASGOW        SUNNY     79  48  33 S12       29.84F
SIDNEY         SUNNY     78  49  35 S12G23    29.87F
WOLF POINT     SUNNY     80  49  33 MISG      29.84F
GLENDIVE       SUNNY     76  51  41 S8        29.88F
MILES CITY     SUNNY     75  53  46 VRB3      29.86F
BAKER          SUNNY     74  48  39 S12       29.91F
$$

CITY           SKY/WX    TMP DP  RH WIND       PRES   REMARKS
BILLINGS       MOSUNNY   78  52  40 N9        29.88F
GREAT FALLS    PTSUNNY   72  45  37 W5        29.93F
REGINA         MOSUNNY   81  43  26 SW3       29.80F
ESTEVAN        MOSUNNY   79  39  24 S10G17    29.86F
$$




USA.gov is the U.S. government's official web portal to all federal, state and local government web resources and services.